Location: Moena
(46.3667°N, 11.6500°E)
Time: 13:26:33
(UTC+00:00)

Cosmos 2333 Rocket - Pass Details

Date: 20 June 2021
Orbit: 841 x 861 km, 70.8° (Epoch: 26 July)

Event Time Altitude Azimuth Distance (km) Brightness Sun altitude
Rises 22:01:04 0° 239° (WSW) 3,425 5.2 -18.2°
Reaches altitude 10° 22:03:50 10° 250° (WSW) 2,490 4.6 -18.3°
Maximum altitude 22:08:49 30° 310° (NW) 1,497 4.0 -18.6°
Drops below altitude 10° 22:13:48 10° 11° (N) 2,491 5.6 -18.8°
Sets 22:16:35 0° 22° (NNE) 3,427 6.2 -18.9°
